Year,Month,Day,Hour,Minute,Value (Times are PST for temperature in C)
2015,06,21,00,00,13.60
2015,06,21,00,01,13.50
2015,06,21,00,02,13.50
2015,06,21,00,03,13.50
2015,06,21,00,04,13.40
2015,06,21,00,05,13.40
2015,06,21,00,06,13.40
2015,06,21,00,07,13.30
2015,06,21,00,08,13.30
2015,06,21,00,09,13.30
2015,06,21,00,10,13.20
2015,06,21,00,11,13.10
2015,06,21,00,12,13.10
2015,06,21,00,13,13.10
2015,06,21,00,14,13.00
2015,06,21,00,15,13.00
2015,06,21,00,16,12.90
2015,06,21,00,17,12.90
2015,06,21,00,18,12.80
2015,06,21,00,19,12.80
2015,06,21,00,20,12.80
2015,06,21,00,21,12.80
2015,06,21,00,22,12.70
2015,06,21,00,23,12.70
2015,06,21,00,24,12.70
2015,06,21,00,25,12.70
2015,06,21,00,26,12.60
2015,06,21,00,27,12.60
2015,06,21,00,28,12.60
2015,06,21,00,29,12.60
2015,06,21,00,30,12.50
2015,06,21,00,31,12.50
2015,06,21,00,32,12.40
2015,06,21,00,33,12.40
2015,06,21,00,34,12.40
2015,06,21,00,35,12.40
2015,06,21,00,36,12.40
2015,06,21,00,37,12.40
2015,06,21,00,38,12.30
2015,06,21,00,39,12.30
2015,06,21,00,40,12.30
2015,06,21,00,41,12.30
2015,06,21,00,42,12.30
2015,06,21,00,43,12.30
2015,06,21,00,44,12.20
2015,06,21,00,45,12.20
2015,06,21,00,46,12.20
2015,06,21,00,47,12.20
2015,06,21,00,48,12.20
2015,06,21,00,49,12.20
2015,06,21,00,50,12.10
2015,06,21,00,51,12.10
2015,06,21,00,52,12.10
2015,06,21,00,53,12.10
2015,06,21,00,54,12.10
2015,06,21,00,55,12.10
2015,06,21,00,56,12.10
2015,06,21,00,57,12.00
2015,06,21,00,58,12.00
2015,06,21,00,59,12.00
2015,06,21,01,00,12.00
2015,06,21,01,01,12.00
2015,06,21,01,02,12.00
2015,06,21,01,03,11.90
2015,06,21,01,04,11.90
2015,06,21,01,05,11.90
2015,06,21,01,06,11.90
2015,06,21,01,07,11.90
2015,06,21,01,08,11.90
2015,06,21,01,09,11.90
2015,06,21,01,10,11.90
2015,06,21,01,11,11.90
2015,06,21,01,12,11.90
2015,06,21,01,13,11.90
2015,06,21,01,14,11.90
2015,06,21,01,15,11.90
2015,06,21,01,16,11.90
2015,06,21,01,17,11.90
2015,06,21,01,18,11.90
2015,06,21,01,19,11.80
2015,06,21,01,20,11.80
2015,06,21,01,21,11.80
2015,06,21,01,22,11.80
2015,06,21,01,23,11.80
2015,06,21,01,24,11.70
2015,06,21,01,25,11.70
2015,06,21,01,26,11.70
2015,06,21,01,27,11.70
2015,06,21,01,28,11.70
2015,06,21,01,29,11.60
2015,06,21,01,30,11.60
2015,06,21,01,31,11.60
2015,06,21,01,32,11.60
2015,06,21,01,33,11.50
2015,06,21,01,34,11.50
2015,06,21,01,35,11.50
2015,06,21,01,36,11.40
2015,06,21,01,37,11.40
2015,06,21,01,38,11.40
2015,06,21,01,39,11.30
2015,06,21,01,40,11.30
2015,06,21,01,41,11.30
2015,06,21,01,42,11.30
2015,06,21,01,43,11.20
2015,06,21,01,44,11.20
2015,06,21,01,45,11.20
2015,06,21,01,46,11.20
2015,06,21,01,47,11.20
2015,06,21,01,48,11.20
2015,06,21,01,49,11.20
2015,06,21,01,50,11.20
2015,06,21,01,51,11.20
2015,06,21,01,52,11.20
2015,06,21,01,53,11.20
2015,06,21,01,54,11.30
2015,06,21,01,55,11.30
2015,06,21,01,56,11.30
2015,06,21,01,57,11.30
2015,06,21,01,58,11.30
2015,06,21,01,59,11.40
2015,06,21,02,00,11.40
2015,06,21,02,01,11.40
2015,06,21,02,02,11.40
2015,06,21,02,03,11.40
2015,06,21,02,04,11.40
2015,06,21,02,05,11.50
2015,06,21,02,06,11.50
2015,06,21,02,07,11.50
2015,06,21,02,08,11.60
2015,06,21,02,09,11.60
2015,06,21,02,10,11.60
2015,06,21,02,11,11.60
2015,06,21,02,12,11.70
2015,06,21,02,13,11.70
2015,06,21,02,14,11.70
2015,06,21,02,15,11.70
2015,06,21,02,16,11.70
2015,06,21,02,17,11.80
2015,06,21,02,18,11.80
2015,06,21,02,19,11.80
2015,06,21,02,20,11.80
2015,06,21,02,21,11.80
2015,06,21,02,22,11.80
2015,06,21,02,23,11.80
2015,06,21,02,24,11.80
2015,06,21,02,25,11.80
2015,06,21,02,26,11.80
2015,06,21,02,27,11.80
2015,06,21,02,28,11.80
2015,06,21,02,29,11.80
2015,06,21,02,30,11.80
2015,06,21,02,31,11.80
2015,06,21,02,32,11.80
2015,06,21,02,33,11.80
2015,06,21,02,34,11.90
2015,06,21,02,35,11.90
2015,06,21,02,36,11.90
2015,06,21,02,37,11.90
2015,06,21,02,38,12.00
2015,06,21,02,39,12.00
2015,06,21,02,40,12.00
2015,06,21,02,41,12.10
2015,06,21,02,42,12.10
2015,06,21,02,43,12.10
2015,06,21,02,44,12.10
2015,06,21,02,45,12.00
2015,06,21,02,46,12.00
2015,06,21,02,47,12.00
2015,06,21,02,48,11.90
2015,06,21,02,49,11.90
2015,06,21,02,50,11.90
2015,06,21,02,51,11.80
2015,06,21,02,52,11.80
2015,06,21,02,53,11.80
2015,06,21,02,54,11.70
2015,06,21,02,55,11.70
2015,06,21,02,56,11.60
2015,06,21,02,57,11.60
2015,06,21,02,58,11.50
2015,06,21,02,59,11.40
2015,06,21,03,00,11.40
2015,06,21,03,01,11.30
2015,06,21,03,02,11.30
2015,06,21,03,03,11.30
2015,06,21,03,04,11.20
2015,06,21,03,05,11.20
2015,06,21,03,06,11.20
2015,06,21,03,07,11.20
2015,06,21,03,08,11.10
2015,06,21,03,09,11.10
2015,06,21,03,10,11.10
2015,06,21,03,11,11.10
2015,06,21,03,12,11.10
2015,06,21,03,13,11.10
2015,06,21,03,14,11.10
2015,06,21,03,15,11.10
2015,06,21,03,16,11.10
2015,06,21,03,17,11.10
2015,06,21,03,18,11.10
2015,06,21,03,19,11.10
2015,06,21,03,20,11.10
2015,06,21,03,21,11.10
2015,06,21,03,22,11.10
2015,06,21,03,23,11.10
2015,06,21,03,24,11.10
2015,06,21,03,25,11.10
2015,06,21,03,26,11.10
2015,06,21,03,27,11.10
2015,06,21,03,28,11.10
2015,06,21,03,29,11.10
2015,06,21,03,30,11.20
2015,06,21,03,31,11.20
2015,06,21,03,32,11.20
2015,06,21,03,33,11.20
2015,06,21,03,34,11.20
2015,06,21,03,35,11.20
2015,06,21,03,36,11.20
2015,06,21,03,37,11.20
2015,06,21,03,38,11.10
2015,06,21,03,39,11.10
2015,06,21,03,40,11.10
2015,06,21,03,41,11.10
2015,06,21,03,42,11.10
2015,06,21,03,43,11.10
2015,06,21,03,44,11.10
2015,06,21,03,45,11.10
2015,06,21,03,46,11.10
2015,06,21,03,47,11.10
2015,06,21,03,48,11.10
2015,06,21,03,49,11.20
2015,06,21,03,50,11.20
2015,06,21,03,51,11.20
2015,06,21,03,52,11.20
2015,06,21,03,53,11.20
2015,06,21,03,54,11.20
2015,06,21,03,55,11.20
2015,06,21,03,56,11.20
2015,06,21,03,57,11.20
2015,06,21,03,58,11.10
2015,06,21,03,59,11.10
2015,06,21,04,00,11.10
2015,06,21,04,01,11.00
2015,06,21,04,02,11.00
2015,06,21,04,03,11.00
2015,06,21,04,04,11.00
2015,06,21,04,05,10.90
2015,06,21,04,06,10.90
2015,06,21,04,07,10.90
2015,06,21,04,08,10.90
2015,06,21,04,09,11.00
2015,06,21,04,10,11.00
2015,06,21,04,11,11.00
2015,06,21,04,12,11.00
2015,06,21,04,13,11.00
2015,06,21,04,14,11.00
2015,06,21,04,15,11.00
2015,06,21,04,16,11.00
2015,06,21,04,17,11.00
2015,06,21,04,18,11.00
2015,06,21,04,19,11.00
2015,06,21,04,20,11.00
2015,06,21,04,21,11.10
2015,06,21,04,22,11.20
2015,06,21,04,23,11.40
2015,06,21,04,24,11.50
2015,06,21,04,25,11.70
2015,06,21,04,26,11.80
2015,06,21,04,27,11.90
2015,06,21,04,28,12.00
2015,06,21,04,29,12.10
2015,06,21,04,30,12.10
2015,06,21,04,31,12.20
2015,06,21,04,32,12.20
2015,06,21,04,33,12.20
2015,06,21,04,34,12.30
2015,06,21,04,35,12.30
2015,06,21,04,36,12.30
2015,06,21,04,37,12.40
2015,06,21,04,38,12.40
2015,06,21,04,39,12.50
2015,06,21,04,40,12.50
2015,06,21,04,41,12.60
2015,06,21,04,42,12.60
2015,06,21,04,43,12.70
2015,06,21,04,44,12.70
2015,06,21,04,45,12.70
2015,06,21,04,46,12.80
2015,06,21,04,47,12.80
2015,06,21,04,48,12.80
2015,06,21,04,49,12.80
2015,06,21,04,50,12.80
2015,06,21,04,51,12.80
2015,06,21,04,52,12.80
2015,06,21,04,53,12.80
2015,06,21,04,54,12.80
2015,06,21,04,55,12.80
2015,06,21,04,56,12.80
2015,06,21,04,57,12.80
2015,06,21,04,58,12.70
2015,06,21,04,59,12.70
2015,06,21,05,00,12.60
2015,06,21,05,01,12.60
2015,06,21,05,02,12.50
2015,06,21,05,03,12.50
2015,06,21,05,04,12.50
2015,06,21,05,05,12.40
2015,06,21,05,06,12.40
2015,06,21,05,07,12.30
2015,06,21,05,08,12.30
2015,06,21,05,09,12.30
2015,06,21,05,10,12.30
2015,06,21,05,11,12.20
2015,06,21,05,12,12.20
2015,06,21,05,13,12.20
2015,06,21,05,14,12.20
2015,06,21,05,15,12.10
2015,06,21,05,16,12.10
2015,06,21,05,17,12.10
2015,06,21,05,18,12.10
2015,06,21,05,19,12.00
2015,06,21,05,20,12.00
2015,06,21,05,21,12.00
2015,06,21,05,22,12.00
2015,06,21,05,23,12.00
2015,06,21,05,24,12.00
2015,06,21,05,25,12.00
2015,06,21,05,26,12.10
2015,06,21,05,27,12.10
2015,06,21,05,28,12.10
2015,06,21,05,29,12.20
2015,06,21,05,30,12.20
2015,06,21,05,31,12.20
2015,06,21,05,32,12.30
2015,06,21,05,33,12.30
2015,06,21,05,34,12.30
2015,06,21,05,35,12.30
2015,06,21,05,36,12.30
2015,06,21,05,37,12.30
2015,06,21,05,38,12.30
2015,06,21,05,39,12.30
2015,06,21,05,40,12.30
2015,06,21,05,41,12.30
2015,06,21,05,42,12.40
2015,06,21,05,43,12.40
2015,06,21,05,44,12.40
2015,06,21,05,45,12.40
2015,06,21,05,46,12.40
2015,06,21,05,47,12.50
2015,06,21,05,48,12.50
2015,06,21,05,49,12.50
2015,06,21,05,50,12.50
2015,06,21,05,51,12.50
2015,06,21,05,52,12.50
2015,06,21,05,53,12.50
2015,06,21,05,54,12.50
2015,06,21,05,55,12.50
2015,06,21,05,56,12.50
2015,06,21,05,57,12.50
2015,06,21,05,58,12.50
2015,06,21,05,59,12.60
2015,06,21,06,00,12.60
2015,06,21,06,01,12.70
2015,06,21,06,02,12.70
2015,06,21,06,03,12.80
2015,06,21,06,04,12.80
2015,06,21,06,05,12.90
2015,06,21,06,06,12.90
2015,06,21,06,07,13.00
2015,06,21,06,08,13.10
2015,06,21,06,09,13.10
2015,06,21,06,10,13.20
2015,06,21,06,11,13.20
2015,06,21,06,12,13.30
2015,06,21,06,13,13.30
2015,06,21,06,14,13.40
2015,06,21,06,15,13.40
2015,06,21,06,16,13.50
2015,06,21,06,17,13.60
2015,06,21,06,18,13.60
2015,06,21,06,19,13.70
2015,06,21,06,20,13.70
2015,06,21,06,21,13.80
2015,06,21,06,22,13.80
2015,06,21,06,23,13.80
2015,06,21,06,24,13.90
2015,06,21,06,25,13.90
2015,06,21,06,26,13.90
2015,06,21,06,27,14.00
2015,06,21,06,28,14.00
2015,06,21,06,29,14.10
2015,06,21,06,30,14.10
2015,06,21,06,31,14.10
2015,06,21,06,32,14.20
2015,06,21,06,33,14.20
2015,06,21,06,34,14.20
2015,06,21,06,35,14.20
2015,06,21,06,36,14.20
2015,06,21,06,37,14.30
2015,06,21,06,38,14.30
2015,06,21,06,39,14.30
2015,06,21,06,40,14.30
2015,06,21,06,41,14.30
2015,06,21,06,42,14.30
2015,06,21,06,43,14.40
2015,06,21,06,44,14.40
2015,06,21,06,45,14.40
2015,06,21,06,46,14.40
2015,06,21,06,47,14.40
2015,06,21,06,48,14.50
2015,06,21,06,49,14.50
2015,06,21,06,50,14.50
2015,06,21,06,51,14.60
2015,06,21,06,52,14.60
2015,06,21,06,53,14.60
2015,06,21,06,54,14.60
2015,06,21,06,55,14.60
2015,06,21,06,56,14.60
2015,06,21,06,57,14.70
2015,06,21,06,58,14.70
2015,06,21,06,59,14.70
2015,06,21,07,00,14.70
2015,06,21,07,01,14.70
2015,06,21,07,02,14.80
2015,06,21,07,03,14.80
2015,06,21,07,04,14.80
2015,06,21,07,05,14.80
2015,06,21,07,06,14.80
2015,06,21,07,07,14.80
2015,06,21,07,08,14.90
2015,06,21,07,09,14.90
2015,06,21,07,10,14.90
2015,06,21,07,11,14.90
2015,06,21,07,12,14.90
2015,06,21,07,13,15.00
2015,06,21,07,14,15.00
2015,06,21,07,15,15.00
2015,06,21,07,16,15.00
2015,06,21,07,17,15.00
2015,06,21,07,18,15.00
2015,06,21,07,19,15.00
2015,06,21,07,20,15.00
2015,06,21,07,21,15.00
2015,06,21,07,22,15.00
2015,06,21,07,23,15.00
2015,06,21,07,24,15.00
2015,06,21,07,25,15.00
2015,06,21,07,26,15.00
2015,06,21,07,27,15.00
2015,06,21,07,28,15.00
2015,06,21,07,29,15.00
2015,06,21,07,30,15.00
2015,06,21,07,31,15.00
2015,06,21,07,32,15.00
2015,06,21,07,33,15.00
2015,06,21,07,34,15.00
2015,06,21,07,35,15.00
2015,06,21,07,36,15.10
2015,06,21,07,37,15.10
2015,06,21,07,38,15.10
2015,06,21,07,39,15.10
2015,06,21,07,40,15.10
2015,06,21,07,41,15.20
2015,06,21,07,42,15.20
2015,06,21,07,43,15.20
2015,06,21,07,44,15.20
2015,06,21,07,45,15.20
2015,06,21,07,46,15.20
2015,06,21,07,47,15.30
2015,06,21,07,48,15.30
2015,06,21,07,49,15.30
2015,06,21,07,50,15.30
2015,06,21,07,51,15.30
2015,06,21,07,52,15.30
2015,06,21,07,53,15.40
2015,06,21,07,54,15.40
2015,06,21,07,55,15.40
2015,06,21,07,56,15.50
2015,06,21,07,57,15.50
2015,06,21,07,58,15.60
2015,06,21,07,59,15.60
2015,06,21,08,00,15.60
2015,06,21,08,01,15.60
2015,06,21,08,02,15.60
2015,06,21,08,03,15.60
2015,06,21,08,04,15.70
2015,06,21,08,05,15.70
2015,06,21,08,06,15.70
2015,06,21,08,07,15.80
2015,06,21,08,08,15.80
2015,06,21,08,09,15.80
2015,06,21,08,10,15.80
2015,06,21,08,11,15.90
2015,06,21,08,12,16.00
2015,06,21,08,13,16.10
2015,06,21,08,14,16.10
2015,06,21,08,15,16.20
2015,06,21,08,16,16.30
2015,06,21,08,17,16.40
2015,06,21,08,18,16.50
2015,06,21,08,19,16.60
2015,06,21,08,20,16.70
2015,06,21,08,21,16.70
2015,06,21,08,22,16.80
2015,06,21,08,23,16.80
2015,06,21,08,24,16.90
2015,06,21,08,25,16.90
2015,06,21,08,26,17.00
2015,06,21,08,27,17.00
2015,06,21,08,28,17.00
2015,06,21,08,29,17.00
2015,06,21,08,30,17.00
2015,06,21,08,31,17.00
2015,06,21,08,32,17.00
2015,06,21,08,33,17.10
2015,06,21,08,34,17.10
2015,06,21,08,35,17.20
2015,06,21,08,36,17.30
2015,06,21,08,37,17.30
2015,06,21,08,38,17.30
2015,06,21,08,39,17.30
2015,06,21,08,40,17.30
2015,06,21,08,41,17.30
2015,06,21,08,42,17.30
2015,06,21,08,43,17.30
2015,06,21,08,44,17.30
2015,06,21,08,45,17.40
2015,06,21,08,46,17.50
2015,06,21,08,47,17.60
2015,06,21,08,48,17.60
2015,06,21,08,49,17.70
2015,06,21,08,50,17.70
2015,06,21,08,51,17.80
2015,06,21,08,52,17.80
2015,06,21,08,53,17.80
2015,06,21,08,54,17.80
2015,06,21,08,55,17.80
2015,06,21,08,56,17.70
2015,06,21,08,57,17.70
2015,06,21,08,58,17.60
2015,06,21,08,59,17.60
2015,06,21,09,00,17.60
2015,06,21,09,01,17.50
2015,06,21,09,02,17.50
2015,06,21,09,03,17.50
2015,06,21,09,04,17.50
2015,06,21,09,05,17.50
2015,06,21,09,06,17.60
2015,06,21,09,07,17.60
2015,06,21,09,08,17.60
2015,06,21,09,09,17.70
2015,06,21,09,10,17.70
2015,06,21,09,11,17.70
2015,06,21,09,12,17.70
2015,06,21,09,13,17.60
2015,06,21,09,14,17.70
2015,06,21,09,15,17.70
2015,06,21,09,16,17.80
2015,06,21,09,17,17.80
2015,06,21,09,18,17.80
2015,06,21,09,19,17.90
2015,06,21,09,20,18.00
2015,06,21,09,21,18.10
2015,06,21,09,22,18.20
2015,06,21,09,23,18.20
2015,06,21,09,24,18.30
2015,06,21,09,25,18.40
2015,06,21,09,26,18.40
2015,06,21,09,27,18.50
2015,06,21,09,28,18.50
2015,06,21,09,29,18.50
2015,06,21,09,30,18.50
2015,06,21,09,31,18.50
2015,06,21,09,32,18.50
2015,06,21,09,33,18.40
2015,06,21,09,34,18.40
2015,06,21,09,35,18.40
2015,06,21,09,36,18.40
2015,06,21,09,37,18.40
2015,06,21,09,38,18.40
2015,06,21,09,39,18.50
2015,06,21,09,40,18.50
2015,06,21,09,41,18.60
2015,06,21,09,42,18.60
2015,06,21,09,43,18.60
2015,06,21,09,44,18.70
2015,06,21,09,45,18.70
2015,06,21,09,46,18.80
2015,06,21,09,47,18.80
2015,06,21,09,48,18.90
2015,06,21,09,49,18.90
2015,06,21,09,50,19.00
2015,06,21,09,51,19.00
2015,06,21,09,52,19.00
2015,06,21,09,53,19.00
2015,06,21,09,54,19.10
2015,06,21,09,55,19.10
2015,06,21,09,56,19.10
2015,06,21,09,57,19.00
2015,06,21,09,58,19.00
2015,06,21,09,59,18.90
2015,06,21,10,00,18.80
2015,06,21,10,01,18.80
2015,06,21,10,02,18.80
2015,06,21,10,03,18.70
2015,06,21,10,04,18.60
2015,06,21,10,05,18.60
2015,06,21,10,06,18.50
2015,06,21,10,07,18.50
2015,06,21,10,08,18.50
2015,06,21,10,09,18.60
2015,06,21,10,10,18.60
2015,06,21,10,11,18.60
2015,06,21,10,12,18.60
2015,06,21,10,13,18.70
2015,06,21,10,14,18.70
2015,06,21,10,15,18.80
2015,06,21,10,16,18.80
2015,06,21,10,17,18.80
2015,06,21,10,18,18.80
2015,06,21,10,19,18.80
2015,06,21,10,20,18.80
2015,06,21,10,21,18.80
2015,06,21,10,22,18.80
2015,06,21,10,23,18.70
2015,06,21,10,24,18.70
2015,06,21,10,25,18.70
2015,06,21,10,26,18.70
2015,06,21,10,27,18.70
2015,06,21,10,28,18.80
2015,06,21,10,29,18.90
2015,06,21,10,30,19.00
2015,06,21,10,31,19.00
2015,06,21,10,32,19.10
2015,06,21,10,33,19.10
2015,06,21,10,34,19.10
2015,06,21,10,35,19.10
2015,06,21,10,36,19.00
2015,06,21,10,37,19.00
2015,06,21,10,38,19.00
2015,06,21,10,39,19.00
2015,06,21,10,40,18.90
2015,06,21,10,41,19.00
2015,06,21,10,42,19.00
2015,06,21,10,43,19.00
2015,06,21,10,44,19.00
2015,06,21,10,45,19.00
2015,06,21,10,46,19.00
2015,06,21,10,47,19.00
2015,06,21,10,48,19.00
2015,06,21,10,49,19.10
2015,06,21,10,50,19.20
2015,06,21,10,51,19.20
2015,06,21,10,52,19.30
2015,06,21,10,53,19.30
2015,06,21,10,54,19.40
2015,06,21,10,55,19.50
2015,06,21,10,56,19.60
2015,06,21,10,57,19.80
2015,06,21,10,58,19.80
2015,06,21,10,59,19.90
2015,06,21,11,00,20.00
2015,06,21,11,01,20.10
2015,06,21,11,02,20.20
2015,06,21,11,03,20.30
2015,06,21,11,04,20.30
2015,06,21,11,05,20.30
2015,06,21,11,06,20.30
2015,06,21,11,07,20.30
2015,06,21,11,08,20.30
2015,06,21,11,09,20.40
2015,06,21,11,10,20.50
2015,06,21,11,11,20.50
2015,06,21,11,12,20.60
2015,06,21,11,13,20.60
2015,06,21,11,14,20.70
2015,06,21,11,15,20.70
2015,06,21,11,16,20.70
2015,06,21,11,17,20.70
2015,06,21,11,18,20.70
2015,06,21,11,19,20.80
2015,06,21,11,20,20.80
2015,06,21,11,21,20.80
2015,06,21,11,22,20.80
2015,06,21,11,23,20.90
2015,06,21,11,24,20.90
2015,06,21,11,25,20.90
2015,06,21,11,26,20.90
2015,06,21,11,27,20.80
2015,06,21,11,28,20.70
2015,06,21,11,29,20.70
2015,06,21,11,30,20.70
2015,06,21,11,31,20.70
2015,06,21,11,32,20.70
2015,06,21,11,33,20.70
2015,06,21,11,34,20.70
2015,06,21,11,35,20.70
2015,06,21,11,36,20.80
2015,06,21,11,37,20.80
2015,06,21,11,38,20.90
2015,06,21,11,39,21.00
2015,06,21,11,40,21.00
2015,06,21,11,41,21.10
2015,06,21,11,42,21.10
2015,06,21,11,43,21.10
2015,06,21,11,44,21.10
2015,06,21,11,45,21.00
2015,06,21,11,46,21.00
2015,06,21,11,47,21.00
2015,06,21,11,48,21.10
2015,06,21,11,49,21.10
2015,06,21,11,50,21.10
2015,06,21,11,51,21.10
2015,06,21,11,52,21.10
2015,06,21,11,53,21.10
2015,06,21,11,54,21.10
2015,06,21,11,55,21.10
2015,06,21,11,56,21.10
2015,06,21,11,57,21.10
2015,06,21,11,58,21.10
2015,06,21,11,59,21.20
2015,06,21,12,00,21.20
2015,06,21,12,01,21.20
2015,06,21,12,02,21.20
2015,06,21,12,03,21.30
2015,06,21,12,04,21.30
2015,06,21,12,05,21.40
2015,06,21,12,06,21.40
2015,06,21,12,07,21.50
2015,06,21,12,08,21.50
2015,06,21,12,09,21.60
2015,06,21,12,10,21.70
2015,06,21,12,11,21.70
2015,06,21,12,12,21.80
2015,06,21,12,13,21.80
2015,06,21,12,14,21.80
2015,06,21,12,15,21.80
2015,06,21,12,16,21.90
2015,06,21,12,17,21.90
2015,06,21,12,18,21.90
2015,06,21,12,19,21.90
2015,06,21,12,20,21.90
2015,06,21,12,21,21.80
2015,06,21,12,22,21.80
2015,06,21,12,23,21.90
2015,06,21,12,24,21.90
2015,06,21,12,25,22.00
2015,06,21,12,26,22.10
2015,06,21,12,27,22.10
2015,06,21,12,28,22.10
2015,06,21,12,29,22.20
2015,06,21,12,30,22.20
2015,06,21,12,31,22.20
2015,06,21,12,32,22.20
2015,06,21,12,33,22.20
2015,06,21,12,34,22.20
2015,06,21,12,35,22.20
2015,06,21,12,36,22.20
2015,06,21,12,37,22.20
2015,06,21,12,38,22.30
2015,06,21,12,39,22.30
2015,06,21,12,40,22.40
2015,06,21,12,41,22.50
2015,06,21,12,42,22.70
2015,06,21,12,43,22.80
2015,06,21,12,44,22.90
2015,06,21,12,45,22.90
2015,06,21,12,46,22.90
2015,06,21,12,47,22.70
2015,06,21,12,48,22.60
2015,06,21,12,49,22.50
2015,06,21,12,50,22.40
2015,06,21,12,51,22.30
2015,06,21,12,52,22.10
2015,06,21,12,53,21.90
2015,06,21,12,54,21.60
2015,06,21,12,55,21.40
2015,06,21,12,56,21.30
2015,06,21,12,57,21.20
2015,06,21,12,58,21.10
2015,06,21,12,59,20.90
2015,06,21,13,00,20.80
2015,06,21,13,01,20.80
2015,06,21,13,02,20.80
2015,06,21,13,03,20.70
2015,06,21,13,04,20.70
2015,06,21,13,05,20.70
2015,06,21,13,06,20.60
2015,06,21,13,07,20.60
2015,06,21,13,08,20.70
2015,06,21,13,09,20.70
2015,06,21,13,10,20.80
2015,06,21,13,11,20.90
2015,06,21,13,12,20.90
2015,06,21,13,13,21.00
2015,06,21,13,14,21.10
2015,06,21,13,15,21.10
2015,06,21,13,16,21.10
2015,06,21,13,17,21.10
2015,06,21,13,18,21.10
2015,06,21,13,19,21.10
2015,06,21,13,20,21.10
2015,06,21,13,21,21.00
2015,06,21,13,22,21.00
2015,06,21,13,23,21.00
2015,06,21,13,24,21.10
2015,06,21,13,25,21.30
2015,06,21,13,26,21.40
2015,06,21,13,27,21.50
2015,06,21,13,28,21.50
2015,06,21,13,29,21.60
2015,06,21,13,30,21.60
2015,06,21,13,31,21.60
2015,06,21,13,32,21.70
2015,06,21,13,33,21.70
2015,06,21,13,34,21.60
2015,06,21,13,35,21.60
2015,06,21,13,36,21.50
2015,06,21,13,37,21.40
2015,06,21,13,38,21.40
2015,06,21,13,39,21.40
2015,06,21,13,40,21.40
2015,06,21,13,41,21.40
2015,06,21,13,42,21.30
2015,06,21,13,43,21.30
2015,06,21,13,44,21.20
2015,06,21,13,45,21.10
2015,06,21,13,46,21.10
2015,06,21,13,47,21.00
2015,06,21,13,48,21.10
2015,06,21,13,49,21.10
2015,06,21,13,50,21.10
2015,06,21,13,51,21.00
2015,06,21,13,52,20.90
2015,06,21,13,53,20.90
2015,06,21,13,54,20.90
2015,06,21,13,55,21.00
2015,06,21,13,56,21.00
2015,06,21,13,57,21.10
2015,06,21,13,58,21.10
2015,06,21,13,59,21.10
2015,06,21,14,00,21.10
2015,06,21,14,01,21.20
2015,06,21,14,02,21.30
2015,06,21,14,03,21.30
2015,06,21,14,04,21.30
2015,06,21,14,05,21.30
2015,06,21,14,06,21.30
2015,06,21,14,07,21.40
2015,06,21,14,08,21.50
2015,06,21,14,09,21.70
2015,06,21,14,10,21.90
2015,06,21,14,11,22.00
2015,06,21,14,12,22.10
2015,06,21,14,13,22.20
2015,06,21,14,14,22.00
2015,06,21,14,15,21.90
2015,06,21,14,16,21.70
2015,06,21,14,17,21.60
2015,06,21,14,18,21.60
2015,06,21,14,19,21.60
2015,06,21,14,20,21.50
2015,06,21,14,21,21.50
2015,06,21,14,22,21.50
2015,06,21,14,23,21.60
2015,06,21,14,24,21.60
2015,06,21,14,25,21.60
2015,06,21,14,26,21.60
2015,06,21,14,27,21.70
2015,06,21,14,28,21.80
2015,06,21,14,29,21.90
2015,06,21,14,30,22.00
2015,06,21,14,31,22.20
2015,06,21,14,32,22.30
2015,06,21,14,33,22.40
2015,06,21,14,34,22.40
2015,06,21,14,35,22.30
2015,06,21,14,36,22.20
2015,06,21,14,37,22.10
2015,06,21,14,38,22.10
2015,06,21,14,39,22.10
2015,06,21,14,40,22.10
2015,06,21,14,41,22.00
2015,06,21,14,42,22.00
2015,06,21,14,43,22.00
2015,06,21,14,44,22.10
2015,06,21,14,45,22.10
2015,06,21,14,46,22.10
2015,06,21,14,47,22.20
2015,06,21,14,48,22.20
2015,06,21,14,49,22.30
2015,06,21,14,50,22.40
2015,06,21,14,51,22.50
2015,06,21,14,52,22.60
2015,06,21,14,53,22.70
2015,06,21,14,54,22.90
2015,06,21,14,55,23.00
2015,06,21,14,56,23.10
2015,06,21,14,57,23.10
2015,06,21,14,58,23.10
2015,06,21,14,59,23.20
2015,06,21,15,00,23.20
2015,06,21,15,01,23.30
2015,06,21,15,02,23.40
2015,06,21,15,03,23.40
2015,06,21,15,04,23.50
2015,06,21,15,05,23.50
2015,06,21,15,06,23.60
2015,06,21,15,07,23.60
2015,06,21,15,08,23.60
2015,06,21,15,09,23.60
2015,06,21,15,10,23.70
2015,06,21,15,11,23.80
2015,06,21,15,12,23.90
2015,06,21,15,13,24.00
2015,06,21,15,14,24.10
2015,06,21,15,15,24.10
2015,06,21,15,16,24.10
2015,06,21,15,17,24.00
2015,06,21,15,18,24.00
2015,06,21,15,19,24.10
2015,06,21,15,20,24.20
2015,06,21,15,21,24.30
2015,06,21,15,22,24.40
2015,06,21,15,23,24.50
2015,06,21,15,24,24.60
2015,06,21,15,25,24.60
2015,06,21,15,26,24.50
2015,06,21,15,27,24.30
2015,06,21,15,28,24.20
2015,06,21,15,29,24.10
2015,06,21,15,30,24.10
2015,06,21,15,31,24.10
2015,06,21,15,32,24.20
2015,06,21,15,33,24.20
2015,06,21,15,34,24.20
2015,06,21,15,35,24.10
2015,06,21,15,36,24.00
2015,06,21,15,37,24.00
2015,06,21,15,38,24.10
2015,06,21,15,39,24.20
2015,06,21,15,40,24.20
2015,06,21,15,41,24.20
2015,06,21,15,42,24.30
2015,06,21,15,43,24.30
2015,06,21,15,44,24.40
2015,06,21,15,45,24.50
2015,06,21,15,46,24.50
2015,06,21,15,47,24.50
2015,06,21,15,48,24.60
2015,06,21,15,49,24.60
2015,06,21,15,50,24.60
2015,06,21,15,51,24.60
2015,06,21,15,52,24.60
2015,06,21,15,53,24.40
2015,06,21,15,54,24.20
2015,06,21,15,55,23.90
2015,06,21,15,56,23.70
2015,06,21,15,57,23.50
2015,06,21,15,58,23.30
2015,06,21,15,59,23.20
2015,06,21,16,00,23.00
2015,06,21,16,01,22.80
2015,06,21,16,02,22.60
2015,06,21,16,03,22.40
2015,06,21,16,04,22.30
2015,06,21,16,05,22.10
2015,06,21,16,06,21.90
2015,06,21,16,07,21.80
2015,06,21,16,08,21.70
2015,06,21,16,09,21.70
2015,06,21,16,10,21.70
2015,06,21,16,11,21.60
2015,06,21,16,12,21.60
2015,06,21,16,13,21.50
2015,06,21,16,14,21.50
2015,06,21,16,15,21.50
2015,06,21,16,16,21.50
2015,06,21,16,17,21.50
2015,06,21,16,18,21.50
2015,06,21,16,19,21.60
2015,06,21,16,20,21.50
2015,06,21,16,21,21.50
2015,06,21,16,22,21.50
2015,06,21,16,23,21.40
2015,06,21,16,24,21.40
2015,06,21,16,25,21.40
2015,06,21,16,26,21.50
2015,06,21,16,27,21.60
2015,06,21,16,28,21.60
2015,06,21,16,29,21.70
2015,06,21,16,30,21.80
2015,06,21,16,31,21.80
2015,06,21,16,32,21.80
2015,06,21,16,33,21.80
2015,06,21,16,34,21.80
2015,06,21,16,35,21.80
2015,06,21,16,36,21.80
2015,06,21,16,37,21.90
2015,06,21,16,38,21.90
2015,06,21,16,39,21.90
2015,06,21,16,40,21.90
2015,06,21,16,41,21.90
2015,06,21,16,42,21.80
2015,06,21,16,43,21.90
2015,06,21,16,44,21.80
2015,06,21,16,45,21.80
2015,06,21,16,46,21.80
2015,06,21,16,47,21.80
2015,06,21,16,48,21.80
2015,06,21,16,49,21.80
2015,06,21,16,50,21.80
2015,06,21,16,51,21.80
2015,06,21,16,52,21.80
2015,06,21,16,53,21.80
2015,06,21,16,54,21.70
2015,06,21,16,55,21.70
2015,06,21,16,56,21.60
2015,06,21,16,57,21.60
2015,06,21,16,58,21.70
2015,06,21,16,59,21.80
2015,06,21,17,00,21.80
2015,06,21,17,01,21.80
2015,06,21,17,02,21.80
2015,06,21,17,03,21.80
2015,06,21,17,04,21.80
2015,06,21,17,05,21.80
2015,06,21,17,06,21.90
2015,06,21,17,07,22.00
2015,06,21,17,08,22.10
2015,06,21,17,09,22.10
2015,06,21,17,10,22.10
2015,06,21,17,11,22.10
2015,06,21,17,12,22.10
2015,06,21,17,13,22.10
2015,06,21,17,14,22.00
2015,06,21,17,15,21.80
2015,06,21,17,16,21.70
2015,06,21,17,17,21.60
2015,06,21,17,18,21.50
2015,06,21,17,19,21.50